[[{"header":{"parameterUnit":"m.s-1","parameterCategory":1,"la1":30.2991,"la2":30.254,"lo1":-89.0895,"lo2":-89.0444,"dy":0.0017,"dx":0.0017,"nx":28,"ny":28,"refTime":"2024-03-23T09:00:00:Z","depth":0,"parameterNumber":2,"parameterNumberName":"U-component_of_WINDS"},"data":[0,0,0,0,0,0,0,0,0,0,0,0,0,0,0,0,0,0,0,0,0,0,0,0,0,0,0,0,0,0,0,0,0,0,0,0,0,0,0,0,0,0,0,0,0,0,0,0,0,0,0,0,0,0,0,0,0,0,-0.5114,-0.5113,0,-0.5069,-0.5069,-0.5068,-0.5046,-0.5046,-0.5046,-0.5046,-0.4999,-0.4998,-0.4997,0,0,0,0,0,0,0,0,0,0,0,0,0,-0.5178,-0.5177,-0.5114,-0.5113,-0.5113,-0.5069,-0.5068,-0.5068,-0.5046,-0.5046,-0.5046,-0.5046,-0.5,-0.4998,-0.4997,0,0,0,0,0,0,0,0,0,0,0,0,0,-0.5144,-0.5177,-0.5114,-0.5097,-0.5094,-0.5069,-0.5068,-0.5068,-0.5046,-0.5046,-0.5046,-0.5046,-0.5,-0.4998,-0.4997,-0.4985,0,0,-0.4991,-0.499,0,0,0,0,0,0,0,0,-0.5146,-0.5141,-0.51,-0.5098,-0.5095,-0.5063,-0.5074,-0.504,-0.5046,-0.5064,-0.5046,-0.5046,-0.502,-0.5017,-0.5009,-0.4983,-0.4981,-0.4991,-0.499,-0.4989,-0.4988,0,0,0,0,0,0,0,-0.5148,-0.5143,-0.5096,-0.5099,-0.5096,-0.509,-0.5085,-0.5068,-0.5043,-0.5063,-0.5061,-0.5056,-0.5019,-0.501,-0.5007,-0.498,-0.4991,-0.4989,-0.4988,-0.4987,-0.4941,-0.4941,0,0,0,0,0,0,-0.5154,-0.5145,-0.5098,-0.5095,-0.5121,-0.5089,-0.5084,-0.5073,-0.5043,-0.5038,-0.5056,-0.5055,-0.5014,-0.5009,-0.5006,-0.4989,-0.4989,-0.4987,-0.4986,-0.4941,-0.4941,-0.4941,0,0,0,0,0,0,-0.5155,-0.515,-0.5099,-0.512,-0.5113,-0.5088,-0.5077,-0.5072,-0.5064,-0.5038,-0.5033,-0.5052,-0.5013,-0.5008,-0.499,-0.4987,-0.4986,-0.4985,-0.4941,-0.4941,-0.4941,-0.4956,0,0,0,0,0,0,-0.5157,-0.515,-0.5146,-0.512,-0.5112,-0.5085,-0.5077,-0.5072,-0.506,-0.5059,-0.5033,-0.5028,-0.5013,-0.4993,-0.4988,-0.4984,-0.4983,-0.4941,-0.4941,-0.4941,-0.4956,-0.4957,-0.4957,0,0,0,0,0,-0.5159,-0.5153,-0.5146,-0.5141,-0.5106,-0.5085,-0.5081,-0.5063,-0.506,-0.5056,-0.5039,-0.5029,-0.4988,-0.4991,-0.4986,-0.4981,-0.4941,-0.4941,-0.4941,-0.4956,-0.4957,-0.4957,0,0,0,0,0,0,-0.518,-0.5149,-0.5141,-0.5126,-0.5108,-0.5081,-0.5075,-0.5065,-0.5048,-0.5047,-0.5026,-0.502,-0.5003,-0.4991,-0.4995,-0.4968,-0.4964,-0.4962,-0.4977,-0.4977,-0.4978,-0.4981,-0.4982,0,0,0,0,0,-0.5183,-0.5169,-0.5142,-0.5131,-0.5123,-0.51,-0.5091,-0.5079,-0.5059,-0.5052,-0.5034,-0.5015,-0.4998,-0.4987,-0.497,-0.4954,-0.4947,-0.4948,-0.4949,-0.4949,-0.4948,-0.4937,-0.4937,-0.494,-0.494,-0.494,0,0,-0.5189,-0.517,-0.5162,-0.5135,-0.512,-0.5104,-0.5094,-0.5079,-0.5068,-0.5049,-0.5031,-0.5017,-0.4994,-0.4977,-0.4968,-0.4966,-0.4946,-0.4949,-0.495,-0.4948,-0.4937,-0.4936,-0.4936,-0.494,-0.494,-0.494,0,0,-0.5191,-0.5176,-0.5164,-0.5149,-0.5126,-0.5111,-0.5108,-0.5082,-0.5072,-0.5053,-0.5038,-0.5024,-0.4995,-0.4979,-0.4967,-0.4961,-0.4951,-0.4956,-0.4959,-0.4949,-0.4948,-0.4948,-0.4945,-0.4944,-0.4955,-0.4955,-0.4955,0,-0.5201,-0.5178,-0.516,-0.5145,-0.5132,-0.5115,-0.5102,-0.5088,-0.506,-0.5052,-0.5049,-0.5011,-0.4995,-0.4973,-0.4971,-0.4962,-0.4957,-0.4959,-0.495,-0.4949,-0.4949,-0.4945,-0.4944,-0.4956,-0.4956,-0.4956,-0.4956,0,-0.5191,-0.5175,-0.5168,-0.5141,-0.5128,-0.5115,-0.5093,-0.5082,-0.5071,-0.5055,-0.5035,-0.5015,-0.4992,-0.4986,-0.4975,-0.4961,-0.496,-0.4954,-0.495,-0.495,-0.4946,-0.4944,-0.4957,-0.4957,-0.4956,-0.4956,0,0,-0.5206,-0.5168,-0.5166,-0.5153,-0.5125,-0.5112,-0.5097,-0.5074,-0.5065,-0.5046,-0.5032,-0.5006,-0.5,-0.4986,-0.4973,-0.4964,-0.4959,-0.4959,-0.4958,-0.4958,-0.494,-0.4945,-0.4944,-0.4952,-0.4951,-0.4951,-0.4942,0,-0.5204,-0.5177,-0.5158,-0.5137,-0.5122,-0.5103,-0.509,-0.5071,-0.5056,-0.504,-0.5023,-0.5005,-0.4998,-0.499,-0.498,-0.4962,-0.4955,-0.4962,-0.4937,-0.4937,-0.4943,-0.4942,-0.4947,-0.4939,-0.494,-0.494,-0.494,0,-0.5199,-0.5179,-0.5157,-0.5129,-0.5122,-0.511,-0.5087,-0.5072,-0.5049,-0.5039,-0.5023,-0.5009,-0.4991,-0.4988,-0.4962,-0.4967,-0.4956,-0.4945,-0.4944,-0.4941,-0.4938,-0.4938,-0.4937,-0.4935,-0.4938,-0.4938,-0.4938,0,-0.5211,-0.5179,-0.5161,-0.5151,-0.5118,-0.511,-0.5096,-0.5073,-0.506,-0.504,-0.5031,-0.5009,-0.4997,-0.4979,-0.4959,-0.4959,-0.4935,-0.4931,-0.4925,-0.4925,-0.492,-0.4921,-0.4917,-0.4914,-0.4914,-0.4914,-0.4914,0,-0.521,-0.5197,-0.5166,-0.5155,-0.5139,-0.5117,-0.5102,-0.5086,-0.5066,-0.505,-0.5033,-0.5019,-0.4994,-0.4976,-0.496,-0.494,-0.4935,-0.4925,-0.4921,-0.4927,-0.4928,-0.4919,-0.4918,-0.4914,-0.4914,-0.4914,-0.4914,0,-0.5221,-0.5201,-0.5179,-0.515,-0.5142,-0.5131,-0.5105,-0.5093,-0.5076,-0.5057,-0.5051,-0.5025,-0.5003,-0.4981,-0.4952,-0.4941,-0.4921,-0.4916,-0.4929,-0.4926,-0.4921,-0.4922,-0.491,-0.4907,-0.4908,-0.4908,-0.4908,0,-0.5222,-0.5211,-0.518,-0.5168,-0.5155,-0.5136,-0.5123,-0.51,-0.5087,-0.5059,-0.505,-0.5026,-0.5007,-0.4972,-0.495,-0.4927,-0.4921,-0.4918,-0.4917,-0.4922,-0.4919,-0.492,-0.4918,-0.4919,-0.4919,-0.4919,-0.4919,0,-0.5226,-0.5215,-0.5197,-0.5173,-0.5157,-0.5138,-0.5118,-0.511,-0.5083,-0.5068,-0.5046,-0.503,-0.4999,-0.4976,-0.495,-0.4934,-0.4922,-0.492,-0.4917,-0.4922,-0.4929,-0.4924,-0.4929,-0.492,-0.492,-0.492,-0.492,-0.492,-0.5231,-0.522,-0.5195,-0.5174,-0.5157,-0.5138,-0.5125,-0.5106,-0.5086,-0.506,-0.5047,-0.5024,-0.4999,-0.4963,-0.4947,-0.4928,-0.4925,-0.4921,-0.492,-0.4919,-0.492,-0.4933,-0.4923,-0.4923,-0.4923,-0.4923,-0.4923,0,-0.5233,-0.5216,-0.5196,-0.5169,-0.5152,-0.5141,-0.5118,-0.5104,-0.5084,-0.5062,-0.5042,-0.5015,-0.4991,-0.4967,-0.4942,-0.4931,-0.4924,-0.4925,-0.4925,-0.4921,-0.4925,-0.4929,-0.493,-0.493,-0.493,-0.493,-0.493,-0.493,-0.5232,-0.5211,-0.5198,-0.5168,-0.5151,-0.5128,-0.5115,-0.5097,-0.5079,-0.505,-0.503,-0.5014,-0.499,-0.4963,-0.494,-0.4933,-0.4925,-0.4927,-0.4918,-0.4922,-0.4921,-0.4921,-0.4925,-0.4925,-0.4925,-0.4916,-0.4916,-0.4916]},{"header":{"parameterUnit":"m.s-1","parameterCategory":1,"la1":30.2991,"la2":30.254,"lo1":-89.0895,"lo2":-89.0444,"dy":0.0017,"dx":0.0017,"nx":28,"ny":28,"refTime":"2024-03-23T09:00:00:Z","depth":0,"parameterNumber":3,"parameterNumberName":"V-component_of_WINDS"},"data":[0,0,0,0,0,0,0,0,0,0,0,0,0,0,0,0,0,0,0,0,0,0,0,0,0,0,0,0,0,0,0,0,0,0,0,0,0,0,0,0,0,0,0,0,0,0,0,0,0,0,0,0,0,0,0,0,0,0,-6.9747,-6.9747,0,-6.9756,-6.9756,-6.9756,-6.9724,-6.9723,-6.9722,-6.9722,-6.9728,-6.9729,-6.973,0,0,0,0,0,0,0,0,0,0,0,0,0,-6.9702,-6.9703,-6.9747,-6.9747,-6.9748,-6.9756,-6.9756,-6.9756,-6.9725,-6.9723,-6.9722,-6.9721,-6.9727,-6.9729,-6.973,0,0,0,0,0,0,0,0,0,0,0,0,0,-6.9717,-6.9703,-6.9747,-6.9733,-6.9732,-6.9756,-6.9756,-6.9756,-6.9725,-6.9723,-6.9722,-6.9721,-6.9727,-6.9729,-6.973,-6.9768,0,0,-6.9735,-6.9736,0,0,0,0,0,0,0,0,-6.9716,-6.9719,-6.9735,-6.9734,-6.9733,-6.9738,-6.9742,-6.976,-6.9725,-6.9727,-6.9722,-6.972,-6.9732,-6.9733,-6.9738,-6.9768,-6.9769,-6.9735,-6.9736,-6.9737,-6.9737,0,0,0,0,0,0,0,-6.9715,-6.9718,-6.9751,-6.9735,-6.9734,-6.9726,-6.9726,-6.9746,-6.9737,-6.9727,-6.9725,-6.9726,-6.9731,-6.9736,-6.9738,-6.9769,-6.9735,-6.9736,-6.9737,-6.9738,-6.9834,-6.9835,0,0,0,0,0,0,-6.9717,-6.9718,-6.975,-6.9751,-6.9721,-6.9728,-6.9728,-6.9737,-6.9737,-6.9736,-6.9728,-6.9725,-6.9734,-6.9736,-6.9738,-6.9784,-6.9737,-6.9738,-6.9739,-6.9832,-6.9834,-6.9836,0,0,0,0,0,0,-6.9716,-6.972,-6.975,-6.9734,-6.9737,-6.973,-6.9741,-6.9738,-6.9744,-6.9738,-6.9736,-6.9735,-6.9733,-6.9736,-6.9762,-6.9784,-6.9739,-6.974,-6.983,-6.9833,-6.9835,-6.9876,0,0,0,0,0,0,-6.9715,-6.972,-6.9734,-6.9734,-6.9738,-6.9774,-6.9742,-6.974,-6.9747,-6.9743,-6.9744,-6.9742,-6.9732,-6.9759,-6.9763,-6.9785,-6.9742,-6.9828,-6.9831,-6.9834,-6.9873,-6.9879,-6.9885,0,0,0,0,0,-6.9713,-6.9744,-6.9735,-6.9739,-6.9756,-6.9775,-6.9777,-6.9766,-6.9749,-6.9763,-6.976,-6.9742,-6.9781,-6.9762,-6.9766,-6.9789,-6.9827,-6.983,-6.9834,-6.987,-6.9878,-6.9885,0,0,0,0,0,0,-6.9744,-6.9744,-6.9734,-6.9766,-6.9771,-6.977,-6.9788,-6.9775,-6.9785,-6.9781,-6.9766,-6.9766,-6.9795,-6.9794,-6.9774,-6.9827,-6.9801,-6.9805,-6.9827,-6.9834,-6.9841,-6.984,-6.9743,0,0,0,0,0,-6.9756,-6.9772,-6.977,-6.9799,-6.9802,-6.9795,-6.9803,-6.9794,-6.9798,-6.98,-6.9798,-6.9803,-6.9816,-6.9825,-6.9837,-6.9872,-6.9873,-6.989,-6.9896,-6.9902,-6.9906,-6.9927,-6.9935,-6.9848,-6.9848,-6.9847,0,0,-6.9778,-6.9779,-6.979,-6.9805,-6.9808,-6.9826,-6.9797,-6.9815,-6.9829,-6.9803,-6.9828,-6.9827,-6.9831,-6.9863,-6.9877,-6.9863,-6.993,-6.9906,-6.9911,-6.9912,-6.9931,-6.994,-6.9947,-6.985,-6.985,-6.9849,0,0,-6.9827,-6.983,-6.9855,-6.986,-6.9866,-6.9861,-6.9868,-6.9869,-6.9868,-6.9893,-6.9875,-6.989,-6.9913,-6.9917,-6.9922,-6.9977,-6.9962,-6.9981,-7.0015,-7.0035,-7.0042,-7.0048,-7.0069,-7.0077,-6.9985,-6.9986,-6.9986,0,-6.9854,-6.988,-6.9869,-6.9891,-6.9899,-6.9878,-6.9904,-6.9908,-6.9917,-6.9923,-6.9908,-6.9938,-6.9939,-6.9973,-6.9987,-6.9991,-6.9998,-6.9981,-7.0042,-7.0048,-7.0053,-7.0073,-7.0081,-6.9988,-6.9988,-6.9987,-6.9987,0,-6.9914,-6.9932,-6.9952,-6.9964,-6.9973,-6.9997,-6.999,-7.0001,-6.9992,-6.9989,-7.0016,-7.0017,-7.003,-7.0037,-7.0027,-7.007,-7.0062,-7.0045,-7.0018,-7.0064,-7.0083,-7.009,-6.9991,-6.9991,-6.999,-6.9989,0,0,-6.9981,-6.999,-6.9997,-7.0003,-7.001,-7.0024,-7.0047,-7.0061,-7.0072,-7.0079,-7.0098,-7.0119,-7.0105,-7.0111,-7.0102,-7.012,-7.0165,-7.0101,-7.0101,-7.0114,-7.0214,-7.0228,-7.0236,-7.0155,-7.0157,-7.0158,-7.0214,0,-7.0032,-7.0073,-7.0065,-7.0105,-7.0123,-7.0105,-7.0126,-7.0132,-7.013,-7.0145,-7.0143,-7.0159,-7.0137,-7.0141,-7.0158,-7.0156,-7.0185,-7.0152,-7.0174,-7.0175,-7.0174,-7.0246,-7.026,-7.0313,-7.0221,-7.0222,-7.0223,0,-7.0095,-7.0108,-7.0151,-7.0157,-7.0164,-7.0183,-7.0196,-7.0211,-7.0218,-7.0216,-7.0224,-7.0212,-7.0236,-7.0209,-7.0241,-7.0219,-7.0227,-7.0228,-7.023,-7.0232,-7.0202,-7.0251,-7.0329,-7.0337,-7.0234,-7.0233,-7.0232,0,-7.0143,-7.017,-7.02,-7.0205,-7.0213,-7.0227,-7.0231,-7.0237,-7.0246,-7.0258,-7.0265,-7.0278,-7.0286,-7.0296,-7.0289,-7.027,-7.0323,-7.0295,-7.0323,-7.0323,-7.0335,-7.0334,-7.0416,-7.0339,-7.0339,-7.0339,-7.0338,0,-7.02,-7.0227,-7.0222,-7.024,-7.027,-7.0261,-7.0291,-7.0293,-7.0299,-7.0317,-7.0302,-7.0319,-7.0308,-7.0324,-7.0318,-7.0347,-7.035,-7.0349,-7.0348,-7.0351,-7.0352,-7.0357,-7.0353,-7.0341,-7.034,-7.034,-7.0339,0,-7.0258,-7.0255,-7.0287,-7.0293,-7.0295,-7.0317,-7.0322,-7.0339,-7.0338,-7.0361,-7.0366,-7.0363,-7.0382,-7.0376,-7.0395,-7.0391,-7.0429,-7.0421,-7.0427,-7.0425,-7.0454,-7.0452,-7.0543,-7.0555,-7.0469,-7.0469,-7.047,0,-7.0295,-7.0316,-7.0325,-7.0337,-7.0343,-7.0362,-7.0373,-7.0365,-7.0377,-7.0389,-7.0405,-7.0423,-7.0437,-7.0468,-7.0467,-7.0483,-7.0477,-7.0508,-7.0479,-7.0483,-7.0479,-7.0478,-7.0481,-7.0513,-7.0514,-7.0515,-7.0516,0,-7.0362,-7.036,-7.0377,-7.0395,-7.0409,-7.0422,-7.0433,-7.0444,-7.0437,-7.0451,-7.0472,-7.0483,-7.0504,-7.0523,-7.0537,-7.054,-7.0528,-7.0525,-7.0533,-7.0537,-7.054,-7.054,-7.0444,-7.0523,-7.0522,-7.0522,-7.0521,-7.0521,-7.0411,-7.043,-7.0441,-7.0461,-7.0469,-7.0481,-7.0498,-7.05,-7.0517,-7.0536,-7.053,-7.0554,-7.0562,-7.0581,-7.0586,-7.0604,-7.0592,-7.0602,-7.0605,-7.0608,-7.0613,-7.0537,-7.0606,-7.0606,-7.0606,-7.0606,-7.0606,0,-7.0478,-7.0485,-7.0504,-7.0522,-7.0538,-7.0526,-7.0539,-7.0553,-7.0575,-7.0584,-7.06,-7.0624,-7.0642,-7.0644,-7.0662,-7.0676,-7.0671,-7.0681,-7.068,-7.0681,-7.0621,-7.0614,-7.0685,-7.0685,-7.0685,-7.0685,-7.0685,-7.0685,-7.0515,-7.0548,-7.0548,-7.0584,-7.059,-7.0615,-7.0624,-7.0635,-7.0643,-7.0671,-7.0688,-7.0689,-7.0696,-7.0714,-7.0731,-7.0731,-7.0738,-7.0751,-7.0749,-7.0693,-7.0685,-7.0678,-7.0671,-7.0753,-7.0753,-7.0808,-7.0808,-7.0809]}]]